Weather Roundup
Issued by NWS

Home | Current Version | Previous Version | Graphics & Text | Print | Product List | Glossary Off
Versions: 1 2 3 4 5 6 7 8 9 10 11 12 13 14 15 16 17 18 19 20 21 22 23 24 25 26 27 28 29 30 31 32 33 34 35 36 37 38 39 40 41 42 43 44 45 46 47 48 49 50

000
NZUS93 KARX 260359
HRRWXR

CURRENT HOURLY OBSERVATIONS ACROSS
MUCH OF THE UPPER MISSISSIPPI VALLEY
NATIONAL WEATHER SERVICE LA CROSSE WI
1100 PM CDT WED MAR 25 2015


...SOUTHEAST MINNESOTA...


CITY           SKY/WX    TMP DP  RH WIND       PRES   REMARKS
ROCHESTER      CLOUDY    32  24  72 NW20      30.06R WCI  20
ROCHESTER/MAYO CLOUDY    34  25  71 W17G23    30.05R WCI  23
WINONA         MOCLDY    37  27  65 W10G18    30.05S WCI  30
AUSTIN         FAIR      30  25  80 W12       30.08S WCI  21
ALBERT LEA     FAIR      30  27  86 W7        30.10R WCI  23
DODGE CENTER   FAIR      32  25  74 W13       30.06S WCI  22
PRESTON        CLOUDY    32  24  73 NW15      30.07R WCI  22
OWATONNA       FAIR      30  25  80 W10       30.09S WCI  21
FARIBAULT      FAIR      32  25  74 W9        30.09S WCI  24
$$

...ELSEWHERE IN MINNESOTA...


CITY           SKY/WX    TMP DP  RH WIND       PRES   REMARKS
MINNEAPOLIS    FAIR      34  22  61 W13       30.05F WCI  25
INTNL FALLS    CLOUDY    26  19  74 N16G24    29.97R WCI  14
DULUTH         FLURRIES  32  23  69 NW16G31   29.88R WCI  21
RED WING       MOCLDY    36  21  55 NW13G18   30.04R WCI  27
REDWOOD FALLS  MOCLDY    37  21  52 N18G29    30.13S WCI  27
MANKATO        MOCLDY    34  25  69 W13       30.11R WCI  25
WORTHINGTON    FAIR      32  19  59 NW9       30.16S WCI  24
FAIRMONT       FAIR      34  23  64 W15       30.13R WCI  24
$$

...SOUTHWEST WISCONSIN...


CITY           SKY/WX    TMP DP  RH WIND       PRES   REMARKS
LA CROSSE      CLOUDY    37  26  64 W12       30.05R WCI  29
PRAIRIE DU CHI CLOUDY    36  25  65 W14G23    30.09R WCI  27
BOSCOBEL       CLOUDY    37  25  61 W7        30.08R WCI  32
LONE ROCK      NOT AVBL
PLATTEVILLE    CLOUDY    34  27  75 W12G18    30.06S WCI  26
FORT MC COY    CLOUDY    35  26  67 W9        30.03R WCI  28
VIROQUA        CLOUDY    33  26  74 W10       30.03R WCI  25
WIS DELLS      NOT AVBL
$$

...ELSEWHERE IN WISCONSIN...


CITY           SKY/WX    TMP DP  RH WIND       PRES   REMARKS
MILWAUKEE      MOCLDY    37  27  67 W8        30.00R WCI  31
MADISON        CLOUDY    37  25  61 NW15G22   30.00S WCI  28
GREEN BAY      CLOUDY    38  28  67 W16G24    29.90S WCI  29
EAU CLAIRE     NOT AVBL
BLACK RVR FLS  CLOUDY    36  26  65 W9        30.00S WCI  29
MEDFORD        CLOUDY    33  25  72 W14G22    29.90S WCI  23
WAUSAU         CLOUDY    35  26  69 W17G24    29.89R WCI  25
WIS RAPIDS     CLOUDY    36  23  59 W13G24    29.97R WCI  27
MARSHFIELD     CLOUDY    35  25  66 W14       29.93R WCI  26
RICE LAKE      CLOUDY    34  24  64 W13G22    29.99R WCI  25
$$

...NORTHEAST IOWA...


CITY           SKY/WX    TMP DP  RH WIND       PRES   REMARKS
DECORAH        CLOUDY    34  25  69 NW9G15    30.07S WCI  26
MASON CITY     FAIR      32  27  81 NW10      30.13S WCI  24
CHARLES CITY   MOCLDY    34  27  75 NW14G25   30.12R WCI  24
OELWEIN        CLOUDY    34  28  80 NW14      30.11S WCI  24
$$

...ELSEWHERE IN IOWA...


CITY           SKY/WX    TMP DP  RH WIND       PRES   REMARKS
DES MOINES     CLOUDY    40  28  62 N6        30.17R
IOWA CITY      CLOUDY    40  30  67 N15G21    30.14R WCI  32
FORT DODGE     FAIR      34  25  69 N5        30.18R WCI  30
$$

...NORTHERN ILLINOIS...


CITY           SKY/WX    TMP DP  RH WIND       PRES   REMARKS
CHICAGO-OHARE  MOCLDY    37  31  78 W9        30.03R WCI  30
CHICAGO-MIDWAY CLOUDY    39  36  89 W6        30.05R WCI  35
MOLINE         FAIR      40  30  67 NW14      30.09S WCI  32
ROCKFORD       MOCLDY    35  27  72 NW10      30.06S WCI  27
PEORIA         CLOUDY    43  37  79 NW5       30.08S
$$

NOTE: "FAIR" INDICATES FEW OR NO CLOUDS BELOW 12,000 FEET WITH NO
SIGNIFICANT WEATHER AND/OR OBSTRUCTIONS TO VISIBILITY. WIND
SPEEDS ARE IN MILES-PER-HOUR.



USA.gov is the U.S. government's official web portal to all federal, state and local government web resources and services.